GW3513 Weather Reports


Display with metric or nautical units.
time (UTC)temp
F
wind
direction
speed
MPH
gust
MPH
rain 1hr
in
rain 24hr
in
rain mn
in
humidity
%
barometer
mb
20260509042640 58 161 0.0 0.0 0.00 0.00 0.00 95 1013.2
20260509042135 58 161 0.0 0.0 0.00 0.00 0.00 95 1013.2
20260509041632 58 161 0.0 0.0 0.00 0.00 0.00 95 1013.1
20260509041130 59 161 0.0 0.0 0.00 0.00 0.00 94 1013.3
20260509040628 59 161 0.0 0.0 0.00 0.00 0.00 94 1013.1
20260509040125 59 161 0.0 0.0 0.00 0.00 0.00 94 1013.2
20260509035622 59 161 0.0 0.0 0.00 0.00 0.00 93 1013.1
20260509035118 59 161 0.0 0.0 0.00 0.00 0.00 93 1013.0
20260509034616 60 161 0.0 0.0 0.00 0.00 0.00 92 1012.9
20260509034113 60 161 0.0 0.0 0.00 0.00 0.00 91 1013.1
20260509033610 60 161 0.0 0.0 0.00 0.00 0.00 91 1013.2
20260509033107 60 161 0.0 0.0 0.00 0.00 0.00 91 1013.1
20260509032604 61 161 0.0 0.0 0.00 0.00 0.00 90 1013.2
20260509032101 61 161 0.0 0.0 0.00 0.00 0.00 90 1013.2
20260509031559 61 161 0.0 0.0 0.00 0.00 0.00 89 1013.2
20260509031056 62 161 0.0 0.0 0.00 0.00 0.00 88 1013.3
20260509030554 62 161 0.0 0.0 0.00 0.00 0.00 87 1013.1
20260509030051 62 161 0.0 0.0 0.00 0.00 0.00 86 1013.0
20260509025547 62 161 0.0 0.0 0.00 0.00 0.00 85 1012.9
20260509025042 63 161 0.0 0.0 0.00 0.00 0.00 83 1012.7
20260509024539 62 161 0.0 0.0 0.00 0.00 0.00 82 1012.7
20260509024035 62 161 0.0 0.0 0.00 0.00 0.00 83 1012.4
20260509023533 62 161 0.0 0.0 0.00 0.00 0.00 83 1012.0
20260509023029 62 161 0.0 0.0 0.00 0.00 0.00 82 1012.1
20260509022526 62 161 0.0 0.0 0.00 0.00 0.00 83 1012.1
20260509022024 61 161 0.0 0.0 0.00 0.00 0.00 83 1012.0
20260509021521 61 161 0.0 0.0 0.00 0.00 0.00 89 1011.9
20260509021017 61 161 0.0 0.0 0.00 0.00 0.00 91 1011.3
20260509020516 63 161 0.0 0.0 0.00 0.00 0.00 88 1010.6
20260509020012 65 161 0.0 0.0 0.00 0.00 0.00 79 1010.2
20260509015511 65 161 0.0 0.0 0.00 0.00 0.00 74 1010.3
20260509015008 65 161 0.0 0.0 0.00 0.00 0.00 70 1010.1
20260509014505 64 161 0.0 0.0 0.00 0.00 0.00 73 1010.2
20260509014001 65 161 0.0 0.0 0.00 0.00 0.00 74 1010.0
20260509013458 65 161 0.0 0.0 0.00 0.00 0.00 73 1009.9
20260509012953 64 161 0.0 0.0 0.00 0.00 0.00 73 1009.8
20260509012450 64 161 0.0 0.0 0.00 0.00 0.00 74 1009.7
20260509011947 63 160 0.0 0.0 0.00 0.00 0.00 75 1009.7
20260509011445 63 161 0.0 0.0 0.00 0.00 0.00 78 1009.4
20260509010942 63 161 0.0 0.0 0.00 0.00 0.00 77 1009.5
20260509010440 63 160 0.0 0.0 0.00 0.00 0.00 78 1009.3
20260509005936 64 160 0.0 0.0 0.00 0.00 0.00 78 1009.4
20260509005434 64 161 0.0 0.0 0.00 0.00 0.00 77 1009.8
20260509004928 63 161 0.0 0.0 0.00 0.00 0.00 79 1010.1
20260509004426 63 160 0.0 0.0 0.00 0.00 0.00 80 1009.9
20260509003924 63 160 0.0 0.0 0.00 0.00 0.00 81 1009.8
20260509003421 62 160 0.0 0.0 0.00 0.00 0.00 82 1009.9
20260509002917 62 160 0.0 0.0 0.00 0.00 0.00 84 1009.7
20260509002416 62 160 0.0 0.0 0.00 0.00 0.00 85 1009.8
20260509001912 61 160 0.0 0.0 0.00 0.00 0.00 89 1009.9
20260509001409 61 160 0.0 0.0 0.00 0.00 0.00 89 1009.7
20260509000906 62 160 0.0 0.0 0.00 0.00 0.00 86 1009.9
20260509000404 62 160 0.0 0.0 0.00 0.00 0.00 84 1009.9
20260508235859 62 160 0.0 0.0 0.00 0.00 0.00 85 1009.9
20260508235357 61 160 0.0 0.0 0.00 0.00 0.00 88 1009.7
20260508234854 62 160 0.0 0.0 0.00 0.00 0.00 86 1010.0
20260508234350 61 160 0.0 0.0 0.00 0.00 0.00 86 1010.2
20260508233849 60 160 0.0 2.0 0.00 0.00 0.00 92 1010.3
20260508233348 59 160 0.0 0.0 0.00 0.00 0.00 92 1010.8
20260508232844 59 160 0.0 0.0 0.00 0.00 0.00 94 1010.9
20260508232340 59 161 0.0 0.0 0.00 0.00 0.00 95 1011.0
20260508231839 60 161 0.0 0.0 0.00 0.00 0.00 95 1011.3
20260508231335 61 161 0.0 0.0 0.00 0.00 0.00 97 1011.7
20260508230832 63 161 0.0 0.0 0.00 0.00 0.00 91 1012.1
20260508230328 68 161 0.0 0.0 0.00 0.00 0.00 78 1012.3
20260508225826 68 161 0.0 0.0 0.00 0.00 0.00 69 1012.0
20260508225322 69 160 0.0 0.0 0.00 0.00 0.00 66 1012.0
20260508224821 70 160 0.0 0.0 0.00 0.00 0.00 65 1011.6
20260508224318 71 160 0.0 0.0 0.00 0.00 0.00 64 1011.7
20260508223815 71 160 0.0 0.0 0.00 0.00 0.00 57 1011.6
20260508223312 72 160 0.0 0.0 0.00 0.00 0.00 57 1011.5
20260508222810 74 160 0.0 0.0 0.00 0.00 0.00 60 1011.2
20260508222307 76 160 0.0 0.0 0.00 0.00 0.00 45 1011.3
20260508221803 77 160 0.0 0.0 0.00 0.00 0.00 45 1011.3
20260508221259 78 160 0.0 0.0 0.00 0.00 0.00 47 1011.2
20260508220755 77 160 0.0 0.0 0.00 0.00 0.00 49 1011.2
20260508220252 77 161 0.0 0.0 0.00 0.00 0.00 48 1011.3
20260508215749 76 161 0.0 0.0 0.00 0.00 0.00 44 1011.0
20260508215245 78 161 0.0 0.0 0.00 0.00 0.00 42 1010.8
20260508214743 80 161 0.0 0.0 0.00 0.00 0.00 43 1010.8
20260508214240 80 161 0.0 0.0 0.00 0.00 0.00 44 1010.9
20260508213736 81 161 0.0 0.0 0.00 0.00 0.00 38 1010.9
20260508213233 92 161 0.0 0.0 0.00 0.00 0.00 31 1010.6
20260508212729 96 161 0.0 0.0 0.00 0.00 0.00 29 1010.5
20260508212226 93 161 0.0 0.0 0.00 0.00 0.00 30 1010.6
20260508211721 92 161 0.0 0.0 0.00 0.00 0.00 34 1010.6
20260508211217 88 161 0.0 0.0 0.00 0.00 0.00 30 1010.8
20260508210715 89 161 0.0 0.0 0.00 0.00 0.00 34 1010.8
20260508210212 89 161 0.0 0.0 0.00 0.00 0.00 33 1010.9
20260508205709 91 160 0.0 0.0 0.00 0.00 0.00 34 1010.6
20260508205205 88 160 0.0 0.0 0.00 0.00 0.00 35 1010.9
20260508204701 88 160 0.0 0.0 0.00 0.00 0.00 36 1011.0
20260508204158 90 160 0.0 0.0 0.00 0.00 0.00 32 1011.4
20260508203654 91 160 0.0 0.0 0.00 0.00 0.00 33 1011.2
20260508203150 89 160 0.0 0.0 0.00 0.00 0.00 34 1011.6
20260508202646 91 160 0.0 0.0 0.00 0.00 0.00 32 1011.5
20260508202144 89 160 0.0 0.0 0.00 0.00 0.00 32 1011.7
20260508201640 88 160 0.0 0.0 0.00 0.00 0.00 37 1011.6
20260508201137 87 160 0.0 0.0 0.00 0.00 0.00 34 1011.6
20260508200634 88 160 0.0 0.0 0.00 0.00 0.00 37 1011.7
20260508200130 88 160 0.0 0.0 0.00 0.00 0.00 35 1011.8
20260508195627 87 160 0.0 0.0 0.00 0.00 0.00 36 1012.0
20260508195123 86 160 0.0 0.0 0.00 0.00 0.00 37 1012.1
20260508194620 86 160 0.0 0.0 0.00 0.00 0.00 40 1012.2
20260508194117 87 160 0.0 0.0 0.00 0.00 0.00 38 1012.1
20260508193614 85 160 0.0 0.0 0.00 0.00 0.00 37 1012.5
20260508193110 86 160 0.0 0.0 0.00 0.00 0.00 37 1012.5
20260508192607 87 160 0.0 0.0 0.00 0.00 0.00 41 1012.7
20260508192104 86 160 0.0 0.0 0.00 0.00 0.00 35 1012.6
20260508191601 85 160 0.0 0.0 0.00 0.00 0.00 35 1012.6
20260508191058 84 160 0.0 0.0 0.00 0.00 0.00 41 1012.6
20260508190555 85 160 0.0 0.0 0.00 0.00 0.00 38 1012.6
20260508190051 84 160 0.0 0.0 0.00 0.00 0.00 39 1012.9
20260508185549 85 160 0.0 0.0 0.00 0.00 0.00 38 1012.9
20260508185046 84 160 0.0 0.0 0.00 0.00 0.00 40 1013.1
20260508184543 83 160 0.0 0.0 0.00 0.00 0.00 41 1013.0
20260508184040 85 160 0.0 0.0 0.00 0.00 0.00 40 1013.1
20260508183536 84 160 0.0 0.0 0.00 0.00 0.00 43 1013.1
20260508183032 83 160 0.0 0.0 0.00 0.00 0.00 42 1013.1
20260508182529 82 160 0.0 0.0 0.00 0.00 0.00 47 1013.2
20260508182026 82 160 0.0 0.0 0.00 0.00 0.00 43 1013.3
20260508181521 82 160 0.0 0.0 0.00 0.00 0.00 44 1013.2
20260508181019 84 160 0.0 0.0 0.00 0.00 0.00 36 1013.3
20260508180515 84 160 0.0 0.0 0.00 0.00 0.00 42 1013.8
20260508180012 84 160 0.0 0.0 0.00 0.00 0.00 41 1013.8
20260508175508 84 160 0.0 0.0 0.00 0.00 0.00 42 1014.0
20260508175006 83 160 0.0 0.0 0.00 0.00 0.00 44 1014.1
20260508174503 82 160 0.0 0.0 0.00 0.00 0.00 45 1014.4
20260508174000 82 160 0.0 0.0 0.00 0.00 0.00 45 1014.4
20260508173457 81 160 0.0 0.0 0.00 0.00 0.00 45 1014.4
20260508172953 82 160 0.0 0.0 0.00 0.00 0.00 42 1014.5
20260508172450 82 160 0.0 0.0 0.00 0.00 0.00 43 1014.5
20260508171946 82 160 0.0 0.0 0.00 0.00 0.00 46 1014.4
20260508171443 82 160 0.0 0.0 0.00 0.00 0.00 43 1014.6
20260508170939 82 160 0.0 0.0 0.00 0.00 0.00 46 1014.7
20260508170437 83 160 0.0 0.0 0.00 0.00 0.00 42 1014.8
20260508165933 82 160 0.0 0.0 0.00 0.00 0.00 45 1014.9
20260508165432 80 160 0.0 0.0 0.00 0.00 0.00 47 1015.0
20260508164927 78 160 0.0 0.0 0.00 0.00 0.00 48 1015.0
20260508164424 78 160 0.0 0.0 0.00 0.00 0.00 47 1015.0
20260508163922 79 160 0.0 0.0 0.00 0.00 0.00 48 1015.1
20260508163419 78 160 0.0 0.0 0.00 0.00 0.00 47 1015.1
20260508162914 78 160 0.0 0.0 0.00 0.00 0.00 45 1014.9
20260508162412 77 160 0.0 0.0 0.00 0.00 0.00 49 1015.2
20260508161909 76 160 0.0 0.0 0.00 0.00 0.00 53 1015.2
20260508161406 75 160 0.0 0.0 0.00 0.00 0.00 50 1015.2
20260508160903 75 160 0.0 0.0 0.00 0.00 0.00 50 1015.1
20260508160402 76 160 0.0 0.0 0.00 0.00 0.00 50 1015.3
20260508155858 76 160 0.0 0.0 0.00 0.00 0.00 50 1015.3
20260508155355 75 160 0.0 0.0 0.00 0.00 0.00 49 1015.4
20260508154852 75 160 0.0 0.0 0.00 0.00 0.00 51 1015.4
20260508154350 74 160 0.0 0.0 0.00 0.00 0.00 49 1015.5
20260508153846 73 160 0.0 0.0 0.00 0.00 0.00 54 1015.5
20260508153343 73 160 0.0 0.0 0.00 0.00 0.00 52 1015.3
20260508152839 74 160 0.0 0.0 0.00 0.00 0.00 50 1015.5
20260508152336 73 160 0.0 0.0 0.00 0.00 0.00 55 1015.6
20260508151832 73 160 0.0 0.0 0.00 0.00 0.00 51 1015.6
20260508151330 74 161 0.0 0.0 0.00 0.00 0.00 51 1015.6
20260508150826 75 160 0.0 0.0 0.00 0.00 0.00 51 1015.7
20260508150322 75 160 0.0 0.0 0.00 0.00 0.00 51 1015.7
20260508145818 73 160 0.0 0.0 0.00 0.00 0.00 58 1015.6
20260508145314 72 160 0.0 0.0 0.00 0.00 0.00 58 1015.7
20260508144811 71 160 0.0 0.0 0.00 0.00 0.00 59 1016.0
20260508144309 71 160 0.0 0.0 0.00 0.00 0.00 56 1015.8
20260508143802 71 160 0.0 0.0 0.00 0.00 0.00 58 1016.0
20260508143258 71 161 0.0 0.0 0.00 0.00 0.00 56 1016.0
20260508142755 69 161 0.0 0.0 0.00 0.00 0.00 62 1016.0
20260508142252 69 161 0.0 0.0 0.00 0.00 0.00 62 1016.3
20260508141748 68 161 0.0 0.0 0.00 0.00 0.00 64 1016.2
20260508141246 67 161 0.0 0.0 0.00 0.00 0.00 64 1016.3
20260508140743 65 161 0.0 0.0 0.00 0.00 0.00 64 1016.2
20260508140239 65 161 0.0 0.0 0.00 0.00 0.00 65 1016.2
20260508135735 65 161 0.0 0.0 0.00 0.00 0.00 65 1016.2
20260508135232 64 161 0.0 0.0 0.00 0.00 0.00 70 1016.2
20260508134727 63 161 0.0 0.0 0.00 0.00 0.00 71 1016.0
20260508134225 62 161 0.0 0.0 0.00 0.00 0.00 72 1016.0
20260508133721 61 161 0.0 0.0 0.00 0.00 0.00 73 1015.9
20260508133219 61 161 0.0 0.0 0.00 0.00 0.00 74 1015.9
20260508132717 60 161 0.0 0.0 0.00 0.00 0.00 74 1015.9
20260508132214 59 161 0.0 0.0 0.00 0.00 0.00 76 1016.0
20260508131709 58 161 0.0 0.0 0.00 0.00 0.00 76 1015.9
20260508131206 57 161 0.0 0.0 0.00 0.00 0.00 78 1016.0
20260508130702 56 161 0.0 0.0 0.00 0.00 0.00 78 1016.2
20260508130200 56 161 0.0 0.0 0.00 0.00 0.00 79 1015.9
20260508125655 55 161 0.0 0.0 0.00 0.00 0.00 81 1016.0
20260508125152 55 161 0.0 0.0 0.00 0.00 0.00 80 1015.9
20260508124650 54 161 0.0 0.0 0.00 0.00 0.00 80 1015.8
20260508124147 54 161 0.0 0.0 0.00 0.00 0.00 80 1016.0
20260508123646 53 161 0.0 0.0 0.00 0.00 0.00 81 1015.9
20260508123143 52 161 0.0 0.0 0.00 0.00 0.00 83 1015.8
20260508122639 52 161 0.0 0.0 0.00 0.00 0.00 83 1015.9
20260508122136 52 161 0.0 0.0 0.00 0.00 0.00 83 1015.8
20260508121634 52 161 0.0 0.0 0.00 0.00 0.00 83 1015.8
20260508121132 51 161 0.0 0.0 0.00 0.00 0.00 84 1015.6
20260508120629 51 161 0.0 0.0 0.00 0.00 0.00 85 1015.8
20260508120127 50 161 0.0 0.0 0.00 0.00 0.00 86 1015.6
20260508115625 50 161 0.0 0.0 0.00 0.00 0.00 87 1015.6
20260508115121 49 161 0.0 0.0 0.00 0.00 0.00 87 1015.6
20260508114618 49 161 0.0 0.0 0.00 0.00 0.00 87 1015.5
20260508114114 49 161 0.0 0.0 0.00 0.00 0.00 87 1015.4
20260508113612 49 161 0.0 0.0 0.00 0.00 0.00 87 1015.6
20260508113110 49 160 0.0 0.0 0.00 0.00 0.00 87 1015.3
20260508112605 49 160 0.0 0.0 0.00 0.00 0.00 87 1015.4
20260508112103 49 160 0.0 0.0 0.00 0.00 0.00 87 1015.3
20260508111559 49 160 0.0 0.0 0.00 0.00 0.00 88 1015.4
20260508111057 48 160 0.0 0.0 0.00 0.00 0.00 88 1015.3
20260508110555 48 160 0.0 0.0 0.00 0.00 0.00 88 1015.2
20260508110050 48 160 0.0 0.0 0.00 0.00 0.00 89 1015.1
20260508105545 48 160 0.0 0.0 0.00 0.00 0.00 89 1015.0
20260508105043 48 160 0.0 0.0 0.00 0.00 0.00 89 1015.2
20260508104541 48 160 0.0 0.0 0.00 0.00 0.00 90 1015.2
20260508104037 48 160 0.0 0.0 0.00 0.00 0.00 90 1015.2
20260508103534 48 160 0.0 0.0 0.00 0.00 0.00 90 1015.2
20260508103031 48 160 0.0 0.0 0.00 0.00 0.00 90 1015.3
20260508102529 48 160 0.0 0.0 0.00 0.00 0.00 90 1015.2
20260508102026 48 160 0.0 0.0 0.00 0.00 0.00 89 1015.4
20260508101524 48 160 0.0 0.0 0.00 0.00 0.00 89 1015.4
20260508101021 48 160 0.0 0.0 0.00 0.00 0.00 89 1015.3
20260508100519 48 160 0.0 0.0 0.00 0.00 0.00 89 1015.3
20260508100015 48 160 0.0 0.0 0.00 0.00 0.00 89 1015.4
20260508095513 48 160 0.0 0.0 0.00 0.00 0.00 89 1015.4
20260508095009 49 160 0.0 0.0 0.00 0.00 0.00 88 1015.4
20260508094506 49 160 0.0 0.0 0.00 0.00 0.00 88 1015.4
20260508094003 49 160 0.0 0.0 0.00 0.00 0.00 88 1015.3
20260508093500 49 160 0.0 0.0 0.00 0.00 0.00 88 1015.3
20260508092958 48 160 0.0 0.0 0.00 0.00 0.00 88 1015.3
20260508092455 48 160 0.0 0.0 0.00 0.00 0.00 89 1015.5
20260508091954 48 161 0.0 0.0 0.00 0.00 0.00 89 1015.2
20260508091450 48 161 0.0 0.0 0.00 0.00 0.00 89 1015.5
20260508090947 48 161 0.0 0.0 0.00 0.00 0.00 89 1015.6
20260508090446 48 161 0.0 0.0 0.00 0.00 0.00 89 1015.4
20260508085941 48 161 0.0 0.0 0.00 0.00 0.00 90 1015.4
20260508085438 48 161 0.0 0.0 0.00 0.00 0.00 90 1015.4
20260508084935 48 161 0.0 0.0 0.00 0.00 0.00 91 1015.4
20260508084432 48 161 0.0 0.0 0.00 0.00 0.00 91 1015.5
20260508083930 48 161 0.0 0.0 0.00 0.00 0.00 91 1015.5
20260508083426 48 161 0.0 0.0 0.00 0.00 0.00 91 1015.4
20260508082921 48 161 0.0 0.0 0.00 0.00 0.00 91 1015.6
20260508082418 48 161 0.0 0.0 0.00 0.00 0.00 91 1015.7
20260508081916 48 161 0.0 0.0 0.00 0.00 0.00 92 1015.9
20260508081413 48 161 0.0 0.0 0.00 0.00 0.00 92 1015.8
20260508080909 48 161 0.0 0.0 0.00 0.00 0.00 91 1015.7
20260508080407 48 161 0.0 0.0 0.00 0.00 0.00 91 1016.0
20260508075903 48 161 0.0 0.0 0.00 0.00 0.00 91 1015.7
20260508075401 48 161 0.0 0.0 0.00 0.00 0.00 91 1015.8
20260508074858 48 161 0.0 0.0 0.00 0.00 0.00 90 1015.7
20260508074355 48 161 0.0 0.0 0.00 0.00 0.00 90 1015.9
20260508073852 48 161 0.0 0.0 0.00 0.00 0.00 90 1015.9
20260508073350 48 161 0.0 0.0 0.00 0.00 0.00 89 1015.8
20260508072846 48 161 0.0 0.0 0.00 0.00 0.00 89 1016.0
20260508072342 48 161 0.0 0.0 0.00 0.00 0.00 88 1016.2
20260508071839 48 161 0.0 0.0 0.00 0.00 0.00 88 1016.3
20260508071333 48 161 0.0 0.0 0.00 0.00 0.00 88 1016.5
20260508070830 48 161 0.0 0.0 0.00 0.00 0.00 88 1016.4
20260508070328 48 161 0.0 0.0 0.00 0.00 0.00 87 1016.3
20260508065825 48 161 0.0 0.0 0.00 0.00 0.00 86 1016.4
20260508065323 48 161 0.0 0.0 0.00 0.00 0.00 86 1016.5
20260508064821 48 161 0.0 0.0 0.00 0.00 0.00 85 1016.5
20260508064318 48 161 0.0 0.0 0.00 0.00 0.00 85 1016.3
20260508063816 49 161 0.0 0.0 0.00 0.00 0.00 83 1016.6
20260508063314 49 161 0.0 0.0 0.00 0.00 0.00 83 1016.8
20260508062810 50 161 0.0 0.0 0.00 0.00 0.00 82 1016.7
20260508062308 50 161 0.0 0.0 0.00 0.00 0.00 81 1016.9
20260508061804 50 161 0.0 0.0 0.00 0.00 0.00 81 1016.6
20260508061302 50 161 0.0 0.0 0.00 0.00 0.00 80 1016.6
20260508060758 50 161 0.0 0.0 0.00 0.00 0.00 81 1016.8
20260508060256 50 161 0.0 0.0 0.00 0.00 0.00 81 1017.0
20260508055751 50 161 0.0 0.0 0.00 0.00 0.00 82 1016.8
20260508055249 50 161 0.0 0.0 0.00 0.00 0.00 81 1016.8
20260508054745 50 161 0.0 0.0 0.00 0.00 0.00 81 1016.8
20260508054243 50 161 0.0 0.0 0.00 0.00 0.00 81 1016.9
20260508053740 50 161 0.0 0.0 0.00 0.00 0.00 81 1016.8
20260508053237 50 161 0.0 0.0 0.00 0.00 0.00 80 1017.0
20260508052734 50 161 0.0 0.0 0.00 0.00 0.00 82 1017.0
20260508052232 50 161 0.0 0.0 0.00 0.00 0.00 82 1016.9
20260508051727 49 161 0.0 0.0 0.00 0.00 0.00 82 1017.0
20260508051223 50 161 0.0 0.0 0.00 0.00 0.00 81 1017.0
20260508050720 50 161 0.0 0.0 0.00 0.00 0.00 79 1017.1
20260508050217 50 161 0.0 0.0 0.00 0.00 0.00 80 1017.2
20260508045712 50 161 0.0 0.0 0.00 0.00 0.00 81 1017.3
20260508045210 50 161 0.0 0.0 0.00 0.00 0.00 79 1017.2
20260508044707 51 161 0.0 0.0 0.00 0.00 0.00 78 1017.2
20260508044204 52 161 0.0 0.0 0.00 0.00 0.00 76 1017.2
20260508043659 53 161 0.0 0.0 0.00 0.00 0.00 74 1017.3
20260508043158 54 161 0.0 0.0 0.00 0.00 0.00 72 1017.4